Orbital Elements at Epoch 2459200.5 (2020-Dec-17.0) TDB
Reference: JPL 15 (heliocentric ecliptic J2000)
Element | Value | Uncertainty (1-sigma) | Units |
e | .1910889093157017 | 4.0289e-08 | |
a | 2.182890149746506 | 5.8979e-09 | au |
q | 1.765764051875458 | 8.8671e-08 | au |
i | 5.337978290287563 | 4.4301e-06 | deg |
node | 38.05810745048839 | 3.6338e-05 | deg |
peri | 327.7118074317308 | 3.7165e-05 | deg |
M | 123.2346396587243 | 7.6277e-06 | deg |
tp | 2458797.247983940641 (2019-Nov-09.74798394) | 2.4592e-05 | TDB |
period | 1178.002598809823 3.23 | 4.7742e-06 1.307e-08 | d yr |
n | .3056020422736933 | 1.2386e-09 | deg/d |
Q | 2.600016247617555 | 7.0249e-09 | au |
|
| | Orbit Determination Parameters
Additional Information
|